Погода в Бишкеке

Погода в Бишкеке : погода сейчас, прогноз погоды и архив. Всё, что Вы хотите узнать о погоде в Бишкеке!

Поиск расширенной информации на нашем сайте:

Другие новости

Новости СМИ2

Главная страница сайта

Новости сайта

03.07.2017

Напоминаем, что на нашем специализированном сайте Метеоцентр.Азия вы можете получить высокодетализированные автоматические прогнозы погоды по пунктам России, СНГ и мира в авиационном формате (включающие направление и скорость ветра, видимость, явления погоды, количество и форму облачности, нижнюю и верхнюю границу облачности).

Рекомендуем: Закажи скорее ремонт двухкомнатной квартиры у нас и получи смету бесплатно.

Погода в Бишкеке - сегодня

Время (UTC), дата Ветер
(°,м/с) 
Видим.   Явления Облачность Т
(°С)
Тd
(°С)
f(%) Тe
(°С)
Pmin
(гПа)
dP
(гПа)
Po
(мм)
O2
(г/м3)
Тmin Tmax R s Состояние
почвы
15 21.09.17 180 (Ю) н/о    ясно 
+19.8 +2.7 32 +21  1012.8  1.1  696  261    +26.6       
18 21.09.17 тихо ()   н/о    4/0 средняя 
[Ac trans]
+16.3 +4.1 44 +16  1013.9  696  264    +26.6       
21 21.09.17 тихо ()   н/о    10/0 верхняя 
[Ci fib]
+14.1 +4.6 53 +14  1013.6  -0.9  696  266           
00 22.09.17 220 (ЮЗ) н/о    ясно 
+12.1 +3.6 56 +13  1014.3  696  268           
03 22.09.17 тихо ()   20000 м    ясно 
+18.1 +2.7 36 +18  1012.7  0.2  696  262           
06 22.09.17 050 (СВ) 20000 м    1/0 средняя 
[Ac trans]
+24.1 +1.7 23 +24  1010.4  -0.4  695  257           
09 22.09.17 310 (СЗ) 20000 м    1/0 средняя 
[Ac trans]
+26.6 +0.9 19 +27  1008.6  -1  695  255           
12 22.09.17 310 (СЗ) 20000 м    3/0 средняя, верхняя 
[Ac trans|Ci fib]
+26.1 +2.1 21 +26  1008.9  0.1  695  255           
15 22.09.17 180 (Ю) н/о    3/0 верхняя 
[Ci fib]
+19.6 +3.2 34 +21  1011.4  0.6  695  261    +27.8       
18 22.09.17 180 (Ю) н/о    3/0 верхняя 
[Ci fib]
+19.5 +3.8 35 +21  1010.5  -0.8  695  261    +27.8       
21 22.09.17 тихо ()   н/о    3/0 верхняя 
[Ci fib]
+16.3 +5 47 +16  1011.2  -0.3  694  263           
00 23.09.17 180 (Ю) н/о    8/0 верхняя 
[Ci fib]
+16 +5.1 48 +17  1011.7  0.5  695  264           
03 23.09.17 140 (ЮВ) 20000 м    3/0 верхняя 
[Ci fib]
+18.9 +4.3 38 +20  1011.9  0.9  695  261          сухая 
06 23.09.17 270 (З) 20000 м    3/3 1000 м 
[Cu hum]
+25.1 -2.2 16 +25  1010.7  0.4  696  257           
09 23.09.17 320 (СЗ) 7-12  20000 м    3/0 средняя 
[Ac trans]
+27.2 -2.7 14 +27  1010.3  0.2  696  255           
12 23.09.17 340 (С) 2{13}  20000 м    8/5 600 м кучево-дожд., средняя 
[Cb cap|Ac trans]
+23.3 +4.8 30 +23  1013.7  2.2  698  258           
15 23.09.17 300 (СЗ) н/о    8/4 600 м кучево-дожд., средняя 
[Cb cap|Ac trans]
+19 +2.9 34 +21  1017.6  2.4  699  263    +28.4       
18 23.09.17 310 (СЗ) н/о    4/0 средняя 
[Ac trans]
+14.1 +6.2 59 +14  1020.1  700  267    +28.4       
21 23.09.17 280 (З) н/о    8/0 средняя 
[Ac trans]
+10.9 +5.3 68 +12  1021.9  0.7  701  271           
00 24.09.17 270 (З) н/о    8/0 средняя 
[Ac trans]
+9.3 +3.2 66 +10  1023  0.5  701  273           
03 24.09.17 тихо ()   20000 м    8/3 600 м кучево-дожд., средняя 
[Cb cap|Ac trans]
+11.4 +3.2 57 +11  1023.1  0.7  702  271           
06 24.09.17 310 (СЗ) 20000 м    8/3 600 м кучево-дожд., средняя 
[Cb cap|Ac trans]
+13.9 +0.6 40 +15  1022.7  0.2  702  269           
09 24.09.17 310 (СЗ) 20000 м    4/0 средняя 
[Ac trans]
+16.9 -2.5 26 +18  1021.1  -0.5  701  266           
12 24.09.17 310 (СЗ) 20000 м    6/0 средняя 
[Ac trans]
+16.6 +0.2 33 +18  1021.8  0.5  702  266           
15 24.09.17 170 (Ю) н/о    4/0 средняя 
[Ac trans]
+12.6 +1.1 45 +14  1023.2  0.2  702  270    +18.2       
Время (UTC), дата Ветер
(°,м/с) 
Видим.   Явления Облачность Т
(°С)
Тd
(°С)
f(%) Тe
(°С)
Pmin
(гПа)
dP
(гПа)
Po
(мм)
O2
(г/м3)
Тmin Tmax R s Состояние
почвы

Для получения пояснительной информации подведите курсор к названию столбца.

ПОГОДА в Бишкеке - архив

Всё, что Вы хотите узнать о погоде в Бишкеке - удобно и подробно!

Выберите нужную дату (начиная с 1 января 2015* года) и нажмите кнопку "Найти".
Будут отображены архивные сводки погоды по пункту Бишкек, начиная с указанной даты.


Отображать данные в формате CSV (для использования в таблицах Excel)


Внимание! Наш архив погоды предназначен исключительно для личного некоммерческого использования в познавательных целях. Если Вам необходимы официальные справки о состоянии погоды (для производственных, юридических, коммерческих и т.п. целей), обращайтесь в органы Росгидромета.

*Примечание: данная дата относится к архиву по метеостанциям СССР (Россия, СНГ, Балтия).
Архив по метеостанциям Зарубежной Европы и Азии (кроме Китая) хранится 10 дней, по другим регионам земного шара (Китай, Африка, Америка, Австралия, Океания) - 1 день.

Бишкек - район местоположения метеостанции


Название, широта, долгота, высота метеостанции:
Бишкек (город) 42.9°ш. 74.5°д. 760 м над ур. моря [Кыргызстан]

Дополнительная информация

В oтличие oт бoльшинства пoгoдных сайтoв мы публикуем пoдрoбную метеoинфoрмацию в детальнoм прoфессиoнальнoм фoрмате.

Характеристики температуры и влажнoсти вoздуха измеряются на высoте 2 м в тени вдали oт зданий и деревьев.
Скoрoсть ветра измеряется на высoте 10 м (на урoвне рoста челoвека скoрoсть ветра ниже в 1.5-2 раза). Если метеoстанция нахoдится в гoрoде или в лесу, тo скoрoсть ветра занижена на 2-4 м/с пo сравнению с oткрытым местoм. Скoрoсть ветра над акватoриями крупных рек и oзёр, а также на вершинах хoлмoв на 2-5 м/с выше, чем в oбычных услoвиях.
Атмoсфернoе давление в разных тoчках местнoсти мoжет значительнo oтличаться oт давления на метеoстанции, в зависимoсти oт услoвий рельефа (при пoдъёме на 10 м давление пoнижается примернo на 1 мм рт.ст.).